Location: Beaurecueil
(43.5122°N, 5.5450°E)
Time: 03:00:58
(UTC+00:00)

Meteor 1-21 - Pass Details

Date: 24 June 2021
Orbit: 846 x 885 km, 81.2° (Epoch: 03 August)

Event Time Altitude Azimuth Distance (km) Brightness Sun altitude
Rises 20:51:12 0° 237° (WSW) 3,416 7.4 -12.6°
Reaches altitude 10° 20:54:36 10° 258° (WSW) 2,479 7.0 -13.0°
Maximum altitude 20:58:03 16° 296° (WNW) 2,059 7.2 -13.4°
Drops below altitude 10° 21:01:30 10° 335° (NNW) 2,481 8.0 -13.8°
Sets 21:04:55 0° 356° (N) 3,419 8.4 -14.2°
